Temperature
19 18 18 18 19 19 19 19 18 19 19 18 18 18 17 17 17 17 17 18 18 18 18 18 18 18 17 17 17 17 17 16 16 16 16 16 15 15 15 15 16 16 15 15
18 18 19 19 19 19 19 19 18 19 19 19 18 17 17 17 17 17 17 18 18 18 18 18 18 18 17 17 17 17 17 16 16 16 16 16 15 15 15 15 15 15 15 15
18 19 20 20 19 19 19 19 18 18 18 18 18 17 17 17 17 17 18 18 18 18 18 18 18 18 18 17 17 17 17 16 16 16 16 15 15 15 15 15 15 15 15 15
18 19 20 20 19 19 19 19 19 19 17 17 18 16 17 16 16 16 17 18 18 18 18 18 18 18 18 18 17 17 17 17 16 16 16 16 15 15 15 15 15 15 15 15
18 19 19 19 20 20 19 19 19 18 17 17 17 16 16 16 16 16 17 17 18 18 19 19 19 18 18 18 17 17 17 17 16 16 16 16 15 15 15 15 15 15 15 15
19 19 20 20 20 20 19 18 17 15 16 16 17 16 16 15 16 17 17 18 18 19 19 19 19 18 18 18 17 17 17 17 16 16 16 16 16 15 15 15 15 15 15 15
18 19 19 20 19 19 18 17 16 16 15 16 16 16 16 17 17 17 17 18 18 19 19 19 18 18 18 18 18 17 17 17 17 16 16 16 16 16 15 15 15 15 15 15
17 17 19 19 19 18 18 17 16 16 16 15 16 16 17 18 18 18 18 18 18 18 19 19 19 18 18 18 18 17 17 17 17 16 16 16 16 16 16 15 15 15 15 15
16 17 19 19 19 18 17 16 16 15 16 16 15 16 17 18 18 17 18 18 18 18 19 19 19 19 18 18 18 17 17 17 17 16 16 16 16 16 16 15 15 15 15 15
17 17 18 19 19 18 17 16 15 15 16 16 16 16 17 18 18 17 17 17 18 18 19 19 19 19 18 18 18 17 17 17 17 17 16 16 16 16 16 16 16 15 15 15
17 17 17 18 18 18 17 16 15 14 15 15 16 16 18 18 18 17 17 18 18 19 19 19 19 19 19 18 18 18 17 17 17 17 16 16 16 16 16 16 15 15 15 15
16 15 15 17 18 18 17 17 15 15 15 14 15 16 18 17 17 17 18 18 19 19 19 19 19 19 18 18 18 18 17 17 17 17 17 16 16 16 16 16 15 15 15 15
16 15 15 16 17 17 17 17 16 15 14 13 15 17 18 17 17 18 18 19 19 19 19 19 19 19 19 18 18 18 17 17 17 17 17 16 16 16 16 16 16 15 15 15
16 15 15 16 16 16 17 17 16 15 14 14 15 16 18 18 17 18 18 19 19 19 19 19 19 19 19 19 18 18 18 17 17 17 17 16 16 16 16 16 16 15 15 15
16 15 16 16 17 17 17 17 16 16 15 15 16 16 18 18 17 18 19 19 19 19 19 19 19 19 19 19 18 18 18 17 17 17 17 17 16 16 16 16 16 15 15 15
14 15 16 16 17 17 17 17 17 16 16 16 16 17 17 18 18 18 19 19 19 19 19 19 19 19 19 19 19 18 18 18 17 17 17 17 16 16 16 16 16 16 15 15
13 14 15 15 16 17 16 17 17 17 17 16 17 17 17 17 17 18 19 19 20 20 20 20 20 20 20 19 19 19 18 18 18 17 17 17 17 16 16 16 16 16 16 15
13 13 13 14 15 16 16 17 17 17 17 17 17 17 17 18 19 20 20 20 20 20 20 20 20 20 20 20 19 19 18 18 18 17 17 17 17 16 16 16 16 16 16 16
13 13 12 13 14 15 17 17 17 17 17 17 17 17 18 18 18 18 20 20 20 20 20 21 21 20 20 20 19 19 19 18 18 18 17 17 17 17 16 16 16 16 16 16
12 12 12 12 14 15 16 18 18 17 17 17 17 17 17 17 16 17 20 20 20 20 20 20 20 20 20 20 19 19 19 18 18 18 18 17 17 17 17 16 16 16 16 16
13 12 12 12 14 14 16 17 17 17 17 18 18 18 17 17 18 19 20 20 20 20 20 20 20 20 20 20 19 19 19 19 19 18 18 17 17 17 17 16 16 16 16 16
13 12 12 12 13 15 16 16 16 17 18 18 18 19 18 18 19 19 20 20 20 20 20 20 20 20 20 20 19 19 19 19 18 18 18 18 17 17 17 16 16 16 16 15
12 13 13 13 14 16 17 17 18 19 18 19 19 19 19 19 19 19 19 19 19 19 20 20 20 20 19 19 19 19 19 19 18 18 18 18 17 17 17 16 16 16 16 15
12 12 12 13 14 15 16 17 18 18 18 19 19 19 19 18 19 19 19 19 19 19 19 19 19 19 19 19 19 19 19 18 18 18 18 18 17 17 17 16 16 16 15 15
12 12 12 13 13 15 16 17 18 18 18 18 19 19 19 19 18 18 18 18 18 19 19 19 19 19 19 19 18 18 18 18 18 18 18 17 17 17 17 16 16 16 16 15
11 12 12 13 14 14 16 17 17 18 18 18 18 18 18 18 18 18 18 18 18 18 18 18 18 18 18 18 18 18 18 17 17 17 17 17 17 17 16 16 16 15 15 15
Wind_Speed
3 4 3 6 6 5 5 4 3 4 2 4 5 5 6 7 7 7 7 7 7 8 6 5 5 5 5 5 6 6 6 4 4 3 3 2 2 2 3 4 6 5 5 6
5 2 5 4 4 4 4 3 2 2 1 3 3 4 5 6 8 8 9 9 9 7 5 5 6 6 6 6 6 6 5 5 4 3 3 2 2 2 1 2 5 6 5 5
4 4 2 5 5 4 3 5 4 3 1 2 1 4 4 5 5 5 7 8 8 10 9 8 7 7 7 7 7 7 6 5 4 4 3 3 3 3 3 3 3 5 5 6
3 3 2 4 4 6 3 4 5 4 3 1 1 3 6 4 5 7 9 8 9 9 8 8 8 8 8 8 7 6 6 5 4 5 5 4 3 2 1 1 2 4 6 6
3 2 3 4 4 6 4 2 3 3 4 1 0 2 7 2 6 10 11 11 10 10 10 10 10 10 8 8 7 7 6 5 4 5 6 5 4 2 1 2 3 4 4 5
4 2 3 4 2 4 5 6 6 5 4 1 3 4 6 5 8 7 9 11 11 10 10 9 8 7 7 6 6 7 7 5 4 5 5 6 6 4 3 2 2 2 2 3
2 2 1 2 4 3 5 6 3 3 2 5 3 3 8 7 7 8 10 11 11 10 10 10 9 9 9 8 8 7 7 6 5 5 5 5 6 5 5 3 2 2 1 1
3 3 3 2 5 5 4 7 6 4 4 4 1 5 7 6 5 5 6 7 9 10 10 11 11 11 10 10 9 8 8 6 6 6 5 4 5 4 3 3 3 3 2 1
6 4 2 2 3 8 6 4 6 5 2 1 5 6 8 2 2 0 3 6 9 10 11 11 10 10 10 10 10 10 9 7 6 6 5 4 4 4 4 3 3 2 2 2
7 3 2 1 5 4 6 8 5 5 3 3 5 5 5 5 3 1 3 6 7 8 10 10 10 10 9 9 8 8 8 8 6 6 5 5 4 4 4 4 4 3 2 3
4 4 1 1 3 5 4 4 4 4 5 4 3 6 6 6 5 5 6 6 7 9 10 10 9 9 8 8 8 8 8 7 6 6 5 5 4 4 4 4 4 3 3 4
4 5 2 4 3 4 5 6 7 5 3 4 3 7 6 5 5 5 5 4 5 8 8 9 9 8 8 9 9 9 8 8 7 7 6 5 5 5 4 4 4 4 4 4
6 6 3 3 3 0 2 4 5 5 5 5 4 7 4 3 1 2 4 4 4 6 7 7 8 9 9 10 9 9 9 8 7 7 7 6 5 5 5 4 4 4 5 4
6 5 6 8 7 5 4 4 5 6 5 5 7 8 8 5 3 3 3 4 5 6 8 9 9 9 9 9 9 9 8 8 8 8 7 7 6 6 6 5 5 5 5 5
5 4 5 5 4 4 5 7 8 8 9 8 8 8 10 7 6 5 4 5 5 6 8 10 10 9 9 9 9 9 8 8 8 8 8 7 6 5 5 5 5 5 5 5
3 4 3 3 3 4 5 8 9 9 7 7 6 8 8 5 3 3 5 6 8 8 9 9 10 10 11 11 10 10 9 9 9 9 9 7 7 6 6 6 5 5 5 4
3 5 4 4 1 1 6 9 9 7 6 8 8 9 4 3 5 6 6 7 8 9 9 10 10 11 11 12 12 12 11 9 9 9 8 8 8 7 7 6 6 6 6 5
6 5 4 3 2 6 8 5 7 8 7 7 6 6 6 6 6 5 5 7 7 7 8 9 9 10 9 9 10 9 9 10 10 9 9 8 8 8 7 7 7 6 5 5
7 7 4 4 5 6 7 4 7 7 6 6 7 6 3 1 1 2 3 5 7 7 7 8 8 8 8 8 9 10 9 10 10 10 10 10 10 9 8 8 7 6 5 5
4 5 5 5 5 7 8 4 4 5 4 5 7 6 3 4 2 5 4 3 4 3 3 4 5 5 7 7 9 10 10 10 12 12 11 10 10 10 10 9 7 5 5 5
5 4 5 5 5 7 7 3 5 5 6 4 6 5 5 6 6 5 2 2 2 2 3 4 5 6 7 8 10 10 10 12 11 10 9 9 10 10 10 8 6 6 6 6
7 6 6 6 5 8 3 4 6 6 3 3 4 4 5 4 2 2 2 2 2 2 2 4 5 4 4 7 10 10 10 9 7 9 9 10 10 9 8 8 7 7 8 7
6 7 6 7 7 4 3 5 4 3 3 3 3 3 3 2 2 2 2 2 2 2 3 3 5 5 4 6 9 10 8 7 8 9 9 9 9 8 8 9 9 7 7 6
3 2 3 3 6 5 4 3 2 2 3 3 3 3 4 3 3 3 2 2 2 2 3 3 4 5 4 5 6 6 6 7 9 9 8 8 8 7 7 7 7 7 7 7
4 2 2 3 4 3 2 2 2 1 1 1 1 2 4 4 3 3 2 2 2 2 2 4 5 4 4 4 4 3 5 7 8 8 7 7 7 8 7 6 6 7 7 9
5 6 5 6 6 4 5 3 2 2 1 2 2 1 1 3 4 3 2 2 2 3 3 4 4 3 3 3 3 3 5 7 8 7 7 6 6 7 7 6 4 2 3 6
Wind_Direction
46 82 176 199 186 171 158 162 203 239 205 161 210 234 223 197 193 199 203 208 214 222 221 186 174 159 143 137 139 146 137 135 123 103 95 82 59 27 28 36 50 70 96 109
51 259 224 178 158 139 141 156 222 291 131 161 216 259 243 206 207 204 202 208 211 213 201 183 173 164 164 164 163 156 152 150 139 123 119 116 110 73 44 27 42 49 76 105
178 240 173 143 149 155 178 186 199 194 71 71 102 308 259 239 221 209 205 206 205 204 199 190 181 179 175 177 178 171 167 157 145 132 109 83 60 43 32 25 21 21 55 86
229 255 148 145 170 157 217 219 179 152 125 268 145 279 275 242 234 223 217 208 209 206 197 189 184 184 187 189 178 167 164 156 150 145 136 130 124 113 36 18 35 32 49 74
239 202 159 179 195 169 195 123 124 131 134 50 353 211 283 259 240 235 223 213 209 203 195 191 188 187 186 180 171 167 159 153 149 148 145 134 124 127 91 61 66 52 42 59
242 243 187 191 148 143 125 77 62 54 75 297 230 192 278 236 225 232 219 213 206 199 194 189 179 169 171 169 164 160 157 156 154 151 146 146 145 142 124 94 81 59 45 46
312 317 287 139 97 63 98 96 49 10 4 257 249 205 253 254 235 223 215 209 201 191 184 177 170 170 174 172 169 164 162 164 162 158 156 159 160 157 157 155 137 114 77 58
167 257 234 180 161 160 158 141 155 191 223 278 289 238 257 267 265 235 213 196 185 182 181 182 181 179 180 177 171 169 172 171 168 165 167 165 161 157 163 164 153 149 147 141
170 233 278 201 151 137 138 156 157 135 162 276 283 286 301 294 341 233 167 165 180 184 185 186 182 180 180 178 178 177 174 171 172 170 164 164 166 165 170 162 149 151 152 135
152 186 267 160 81 51 140 141 111 124 152 255 295 286 262 284 278 260 190 186 189 183 183 182 180 181 182 181 175 170 171 173 172 167 169 172 172 173 167 153 157 163 151 127
134 146 294 93 161 163 109 109 117 127 152 161 267 277 232 241 236 222 222 205 189 186 185 183 183 180 173 166 166 169 170 170 171 169 168 164 169 166 161 164 173 167 148 139
135 124 185 248 256 182 159 164 148 155 200 174 188 270 275 250 238 215 220 210 192 186 182 179 174 166 166 169 173 176 176 177 179 172 166 169 165 159 162 172 176 162 153 145
141 123 102 357 345 113 159 164 155 134 129 160 181 265 305 338 303 225 214 209 190 176 171 168 168 172 177 177 178 180 181 182 175 165 164 163 164 169 176 176 169 157 153 145
130 131 168 193 214 192 196 190 165 143 167 199 218 254 294 304 285 265 236 213 191 180 176 175 180 184 184 181 180 181 184 181 173 167 167 172 180 182 181 172 163 160 157 153
119 163 195 218 220 193 203 207 193 194 193 197 225 234 258 256 246 242 223 200 191 187 184 185 187 188 184 182 181 182 183 179 174 170 176 186 182 173 168 165 164 158 156 161
110 154 170 220 223 213 231 222 206 210 204 214 232 251 254 257 226 222 217 202 202 202 197 193 190 186 188 189 187 184 184 181 173 177 185 178 168 167 170 170 162 154 154 151
135 140 150 216 246 67 253 224 203 204 201 190 215 237 252 243 231 224 219 211 213 207 198 195 193 193 193 193 188 190 189 176 177 182 180 174 170 172 176 170 158 161 164 156
153 142 149 166 136 227 243 230 192 195 214 204 215 230 224 227 231 223 204 205 215 209 202 201 198 198 195 189 187 183 172 172 179 182 180 177 175 177 172 165 171 172 161 162
166 150 146 155 197 261 283 232 182 186 234 213 213 232 233 229 48 304 233 206 208 204 200 199 197 193 184 182 179 170 172 174 178 184 187 184 180 176 172 177 180 175 166 170
134 139 144 153 180 227 244 243 189 141 250 232 199 210 191 130 165 262 258 216 210 202 189 181 171 165 170 177 167 169 176 179 189 193 191 182 177 176 181 185 179 170 168 174
133 141 169 175 205 250 252 244 128 161 238 235 195 197 175 185 211 226 217 194 188 177 174 161 159 170 180 168 165 175 180 194 198 186 177 176 179 182 181 176 171 164 161 156
170 167 179 166 195 241 242 142 171 215 237 190 191 190 182 201 206 185 171 178 169 150 136 147 157 168 164 162 169 179 194 199 178 169 173 180 181 182 177 167 169 165 162 160
189 185 180 191 212 236 217 208 227 193 197 200 189 199 168 175 194 178 160 155 157 153 150 152 153 151 153 167 175 187 198 178 166 168 177 180 177 178 172 172 171 165 168 172
255 160 151 220 254 256 257 256 259 213 213 211 184 172 154 166 173 155 145 143 141 136 137 138 134 140 160 180 185 191 180 169 166 171 174 171 171 171 168 171 174 174 179 182
213 172 167 229 264 291 271 244 257 274 146 133 110 143 156 144 152 157 149 147 149 136 125 130 139 153 170 175 178 171 161 158 162 164 166 166 167 167 166 170 180 183 191 190
201 186 183 219 223 210 244 256 224 174 188 181 135 86 121 150 160 156 152 152 145 138 131 131 132 139 153 156 149 147 154 157 156 160 164 165 164 164 163 158 142 125 154 168
Height
1509 1514 1518 1517 1516 1518 1522 1526 1529 1526 1521 1525 1527 1527 1526 1526 1527 1529 1530 1532 1533 1535 1537 1539 1541 1543 1545 1547 1548 1550 1551 1552 1553 1554 1554 1555 1556 1556 1556 1557 1557 1557 1557 1558
1514 1516 1512 1512 1514 1517 1521 1526 1528 1525 1522 1524 1527 1527 1524 1524 1524 1525 1527 1529 1531 1533 1536 1538 1540 1542 1544 1546 1548 1550 1551 1553 1554 1554 1555 1556 1556 1557 1557 1558 1558 1558 1558 1559
1515 1513 1509 1511 1515 1518 1521 1525 1525 1526 1524 1524 1528 1530 1525 1522 1522 1524 1525 1527 1529 1531 1533 1536 1538 1541 1543 1546 1548 1550 1551 1553 1554 1555 1556 1556 1557 1558 1558 1558 1559 1559 1559 1560
1513 1509 1509 1512 1515 1517 1523 1517 1519 1523 1531 1536 1532 1543 1527 1522 1521 1521 1522 1523 1525 1528 1531 1534 1536 1539 1542 1544 1547 1549 1551 1553 1554 1555 1556 1556 1557 1558 1558 1559 1559 1560 1560 1561
1512 1509 1510 1513 1513 1513 1517 1515 1519 1523 1530 1537 1535 1541 1533 1523 1522 1518 1517 1519 1521 1524 1528 1531 1534 1537 1540 1543 1546 1549 1551 1553 1554 1555 1556 1557 1557 1558 1559 1559 1560 1560 1561 1562
1509 1507 1507 1508 1509 1511 1514 1519 1525 1531 1536 1545 1536 1540 1535 1524 1517 1512 1512 1514 1517 1520 1524 1528 1532 1535 1539 1542 1545 1548 1550 1552 1553 1555 1556 1557 1557 1558 1559 1559 1560 1561 1562 1562
1512 1509 1506 1506 1511 1513 1516 1530 1545 1546 1551 1548 1535 1536 1530 1512 1508 1507 1508 1509 1513 1517 1521 1525 1529 1533 1536 1540 1543 1546 1549 1551 1553 1554 1556 1557 1558 1558 1559 1560 1561 1561 1562 1563
1520 1521 1508 1506 1509 1515 1518 1525 1544 1552 1553 1547 1536 1536 1520 1507 1504 1503 1504 1506 1510 1514 1518 1522 1526 1530 1534 1538 1541 1545 1548 1550 1552 1554 1555 1557 1558 1559 1559 1560 1561 1562 1563 1564
1519 1519 1506 1505 1505 1509 1519 1525 1526 1539 1542 1547 1541 1529 1514 1504 1503 1503 1503 1505 1508 1511 1515 1519 1523 1527 1532 1536 1539 1543 1546 1549 1551 1553 1555 1556 1557 1559 1560 1561 1562 1562 1563 1564
1508 1516 1508 1506 1506 1509 1512 1519 1530 1538 1548 1550 1540 1533 1524 1508 1505 1503 1503 1504 1506 1509 1513 1517 1521 1525 1529 1534 1537 1541 1545 1547 1550 1552 1554 1556 1557 1559 1560 1561 1562 1563 1563 1564
1504 1514 1514 1509 1511 1514 1517 1521 1527 1535 1538 1548 1548 1535 1509 1505 1502 1503 1502 1503 1505 1508 1511 1515 1519 1523 1527 1532 1536 1539 1543 1546 1548 1551 1553 1555 1557 1558 1559 1560 1562 1563 1564 1564
1504 1513 1520 1514 1507 1506 1509 1515 1523 1535 1539 1541 1543 1533 1501 1501 1500 1500 1501 1502 1504 1507 1510 1513 1517 1521 1525 1529 1533 1537 1541 1544 1547 1549 1552 1554 1556 1557 1559 1560 1561 1562 1563 1564
1502 1513 1524 1522 1519 1511 1511 1512 1516 1523 1533 1541 1541 1527 1500 1499 1499 1500 1501 1502 1503 1506 1509 1512 1516 1519 1523 1527 1531 1535 1538 1541 1545 1548 1550 1553 1555 1556 1558 1559 1560 1562 1563 1564
1496 1508 1517 1523 1518 1511 1511 1511 1514 1520 1531 1535 1530 1519 1505 1501 1500 1499 1500 1501 1502 1504 1507 1510 1513 1517 1521 1524 1528 1532 1536 1539 1542 1545 1548 1551 1553 1555 1557 1558 1560 1561 1562 1564
1495 1506 1506 1506 1504 1505 1506 1507 1510 1514 1517 1523 1518 1514 1504 1499 1498 1498 1499 1500 1502 1503 1505 1507 1510 1514 1518 1522 1526 1529 1533 1536 1540 1543 1546 1549 1551 1554 1556 1557 1559 1560 1562 1563
1496 1503 1504 1505 1502 1503 1504 1503 1504 1506 1508 1510 1509 1507 1497 1495 1496 1496 1497 1498 1499 1500 1502 1505 1508 1511 1515 1518 1522 1526 1530 1533 1537 1540 1543 1546 1549 1552 1554 1556 1558 1559 1561 1562
1498 1502 1508 1511 1504 1504 1508 1499 1499 1500 1499 1502 1505 1500 1494 1494 1494 1493 1494 1495 1496 1498 1500 1502 1505 1508 1511 1515 1519 1523 1526 1530 1534 1537 1540 1544 1547 1549 1552 1554 1556 1558 1559 1561
1496 1501 1508 1511 1510 1516 1500 1487 1488 1492 1492 1492 1492 1491 1491 1490 1490 1490 1491 1493 1493 1495 1497 1499 1502 1505 1509 1513 1516 1520 1524 1527 1530 1533 1537 1540 1543 1546 1549 1552 1554 1556 1558 1559
1489 1498 1507 1512 1513 1506 1493 1485 1485 1490 1491 1487 1488 1487 1487 1488 1489 1489 1489 1490 1491 1493 1495 1497 1500 1503 1506 1509 1513 1517 1520 1523 1526 1530 1533 1537 1540 1543 1546 1549 1551 1553 1555 1557
1488 1492 1503 1509 1511 1510 1492 1481 1479 1484 1491 1482 1483 1484 1485 1487 1492 1489 1487 1488 1489 1491 1493 1495 1497 1500 1503 1506 1510 1513 1516 1519 1522 1526 1530 1533 1536 1540 1543 1545 1548 1551 1553 1555
1493 1496 1501 1505 1505 1497 1482 1478 1480 1494 1490 1479 1479 1480 1482 1484 1485 1485 1485 1486 1487 1489 1491 1493 1495 1498 1500 1504 1507 1509 1512 1515 1519 1523 1527 1530 1533 1536 1540 1543 1545 1548 1550 1552
1488 1494 1497 1500 1502 1496 1476 1478 1481 1481 1476 1476 1476 1478 1479 1480 1481 1482 1483 1484 1485 1487 1489 1491 1493 1496 1498 1501 1504 1506 1509 1512 1516 1520 1523 1526 1529 1533 1536 1539 1542 1544 1547 1549
1480 1480 1483 1485 1484 1476 1473 1474 1474 1474 1474 1474 1475 1476 1477 1478 1479 1480 1481 1483 1484 1486 1487 1489 1491 1493 1496 1498 1501 1503 1506 1510 1513 1516 1519 1522 1526 1529 1532 1535 1538 1540 1543 1545
1476 1474 1477 1479 1475 1472 1471 1471 1472 1472 1473 1473 1474 1475 1476 1476 1477 1479 1481 1482 1484 1485 1486 1488 1490 1491 1494 1496 1498 1501 1504 1507 1510 1513 1516 1519 1522 1525 1528 1531 1534 1536 1539 1541
1473 1474 1475 1475 1471 1470 1469 1469 1470 1470 1471 1472 1473 1474 1475 1475 1477 1478 1480 1481 1482 1484 1485 1487 1488 1490 1492 1494 1496 1498 1501 1504 1506 1509 1512 1515 1518 1521 1524 1527 1530 1532 1535 1537
1468 1470 1472 1472 1468 1469 1468 1468 1469 1469 1469 1470 1471 1472 1473 1475 1476 1477 1478 1480 1481 1483 1484 1486 1487 1488 1490 1492 1494 1496 1498 1501 1504 1506 1509 1512 1515 1518 1521 1523 1526 1529 1532 1534